TimeEST,TemperatureF,Dew PointF,Humidity,Sea Level PressureIn,VisibilityMPH,Wind Direction,Wind SpeedMPH,Gust SpeedMPH,PrecipitationIn,Events,Conditions,WindDirDegrees,DateUTC
12:54 AM,37.9,30.9,76,30.29,10.0,NW,3.5,-,N/A,,Clear,320,2012-11-16 05:54:00
1:54 AM,37.9,30.9,76,30.30,10.0,NNW,3.5,-,N/A,,Clear,340,2012-11-16 06:54:00
2:54 AM,37.9,30.9,76,30.30,10.0,North,4.6,-,N/A,,Clear,350,2012-11-16 07:54:00
3:54 AM,37.0,30.9,79,30.29,10.0,North,5.8,-,N/A,,Partly Cloudy,360,2012-11-16 08:54:00
4:54 AM,37.0,30.9,79,30.30,10.0,North,4.6,-,N/A,,Partly Cloudy,350,2012-11-16 09:54:00
5:54 AM,37.9,30.9,76,30.30,10.0,NNE,4.6,-,N/A,,Clear,30,2012-11-16 10:54:00
6:54 AM,37.9,30.0,73,30.30,10.0,NNW,5.8,-,N/A,,Clear,330,2012-11-16 11:54:00
7:54 AM,37.9,28.9,70,30.32,10.0,North,5.8,-,N/A,,Clear,350,2012-11-16 12:54:00
8:54 AM,39.9,28.0,63,30.33,10.0,North,6.9,-,N/A,,Clear,360,2012-11-16 13:54:00
9:54 AM,43.0,27.0,53,30.32,10.0,North,9.2,-,N/A,,Clear,360,2012-11-16 14:54:00
10:54 AM,45.0,27.0,49,30.34,10.0,North,6.9,-,N/A,,Partly Cloudy,350,2012-11-16 15:54:00
11:54 AM,45.0,25.0,46,30.32,10.0,NNE,8.1,-,N/A,,Overcast,20,2012-11-16 16:54:00
12:54 PM,46.0,23.0,40,30.32,10.0,North,10.4,-,N/A,,Overcast,10,2012-11-16 17:54:00
1:54 PM,48.0,25.0,41,30.31,10.0,Variable,6.9,-,N/A,,Clear,0,2012-11-16 18:54:00
2:54 PM,48.9,24.1,38,30.31,10.0,North,8.1,-,N/A,,Clear,10,2012-11-16 19:54:00
3:54 PM,46.9,23.0,39,30.32,10.0,North,8.1,-,N/A,,Clear,10,2012-11-16 20:54:00
4:54 PM,42.1,25.0,51,30.35,10.0,North,3.5,-,N/A,,Clear,350,2012-11-16 21:54:00
5:54 PM,34.0,27.0,75,30.37,10.0,Calm,Calm,-,N/A,,Clear,0,2012-11-16 22:54:00
6:54 PM,30.9,26.1,82,30.38,10.0,Calm,Calm,-,N/A,,Clear,0,2012-11-16 23:54:00
7:54 PM,28.9,25.0,85,30.39,10.0,Calm,Calm,-,N/A,,Clear,0,2012-11-17 00:54:00
8:54 PM,28.0,24.1,85,30.41,10.0,Calm,Calm,-,N/A,,Clear,0,2012-11-17 01:54:00
9:54 PM,27.0,25.0,92,30.42,10.0,West,3.5,-,N/A,,Clear,270,2012-11-17 02:54:00
10:54 PM,27.0,25.0,92,30.42,10.0,Calm,Calm,-,N/A,,Clear,0,2012-11-17 03:54:00
11:54 PM,26.1,24.1,92,30.43,10.0,Calm,Calm,-,N/A,,Clear,0,2012-11-17 04:54:00